DW4032 Weather Reports


time (UTC)temp
C
wind
direction
speed
KPH
gust
KPH
rain 1hr
cm
rain 24hr
cm
rain mn
cm
humidity
%
barometer
mb
20260506091514 13 64 6.4 17.7 0.00 0.00 0.00 72 1009.0
20260506090013 13 347 4.8 9.7 0.00 0.00 0.00 72 1009.0
20260506084511 12 38 3.2 14.5 0.00 0.00 0.00 74 1008.9
20260506083007 12 12 6.4 20.9 0.00 0.00 0.00 77 1008.9
20260506081512 12 53 3.2 20.9 0.00 0.00 0.00 77 1008.8
20260506073004 11 31 1.6 11.3 0.00 0.00 0.00 81 1008.8
20260506071500 11 31 3.2 8.0 0.00 0.00 0.00 82 1008.8
20260506061555 10 344 3.2 8.0 0.00 0.00 0.00 84 1008.6
20260506044553 10 21 3.2 14.5 0.00 0.00 0.00 84 1008.7
20260506043049 10 28 4.8 16.1 0.00 0.00 0.00 83 1008.7
20260506041548 10 347 3.2 9.7 0.00 0.00 0.00 83 1008.6
20260506040050 10 5 3.2 14.5 0.00 0.00 0.00 83 1008.7
20260506034607 10 38 1.6 8.0 0.00 0.00 0.00 83 1008.7
20260506033045 10 9 1.6 8.0 0.00 0.00 0.00 82 1008.8
20260506031551 10 345 1.6 11.3 0.00 0.00 0.00 81 1008.8
20260506030043 10 18 1.6 6.4 0.00 0.00 0.00 82 1009.0
20260506024548 10 355 4.8 9.7 0.00 0.00 0.00 82 1009.1
20260506023040 9 5 1.6 11.3 0.00 0.00 0.00 83 1009.1
20260506021538 9 19 1.6 6.4 0.00 0.00 0.00 83 1009.1
20260506020038 9 335 1.6 4.8 0.00 0.00 0.00 84 1009.2
20260506014537 9 360 1.6 8.0 0.00 0.00 0.00 84 1009.3
20260506013041 9 23 3.2 11.3 0.00 0.00 0.00 84 1009.3
20260506011541 9 18 3.2 11.3 0.00 0.00 0.00 83 1009.3
20260506010050 9 14 3.2 9.7 0.00 0.00 0.00 83 1009.3
20260506004532 9 355 3.2 14.5 0.00 0.00 0.00 83 1009.5
20260506003028 9 17 3.2 9.7 0.00 0.00 0.00 82 1009.7
20260506001529 9 15 3.2 12.9 0.00 0.00 0.00 82 1009.8
20260506000024 8 355 3.2 8.0 0.00 0.00 0.00 82 1009.9
20260505234523 8 9 1.6 8.0 0.00 0.00 0.00 82 1010.0
20260505233021 8 360 1.6 8.0 0.00 0.00 0.00 81 1010.1
20260505231520 8 17 0.0 6.4 0.00 0.00 0.00 81 1010.1
20260505230025 8 15 1.6 4.8 0.00 0.00 0.00 81 1010.2
20260505224517 9 15 1.6 4.8 0.00 0.00 0.00 80 1010.2
20260505223017 9 46 1.6 12.9 0.00 0.00 0.00 79 1010.2
20260505221513 9 360 1.6 6.4 0.00 0.00 0.00 79 1010.4
20260505220010 9 21 1.6 8.0 0.00 0.00 0.00 79 1010.6
20260505214510 10 360 1.6 11.3 0.00 0.00 0.00 78 1010.6
20260505213019 10 25 1.6 9.7 0.00 0.00 0.00 78 1010.6
20260505211507 10 51 1.6 9.7 0.00 0.00 0.00 78 1010.7
20260505210007 10 360 1.6 11.3 0.00 0.00 0.00 78 1010.7
20260505204506 10 44 3.2 9.7 0.00 0.00 0.00 78 1010.7
20260505203006 10 40 3.2 8.0 0.00 0.00 0.00 78 1010.8
20260505201506 10 78 3.2 12.9 0.00 0.00 0.00 77 1010.7
20260505200006 10 350 3.2 19.3 0.00 0.00 0.00 77 1010.7
20260505194504 11 61 8.0 17.7 0.00 0.00 0.00 77 1010.6
20260505193004 11 25 6.4 22.5 0.00 0.00 0.00 76 1010.3
20260505191503 11 31 4.8 22.5 0.00 0.00 0.00 75 1010.1
20260505190003 11 18 8.0 19.3 0.00 0.00 0.00 75 1010.0
20260505184502 12 74 8.0 20.9 0.00 0.00 0.00 74 1009.9
20260505183001 12 19 6.4 19.3 0.00 0.00 0.00 73 1009.8
20260505181502 12 336 4.8 17.7 0.00 0.00 0.00 73 1009.7
20260505180100 12 38 9.7 20.9 0.00 0.00 0.00 72 1009.8
20260505174600 13 45 8.0 19.3 0.00 0.00 0.00 71 1009.8
20260505173107 13 349 4.8 12.9 0.00 0.00 0.00 72 1009.8
20260505171602 13 11 8.0 17.7 0.00 0.00 0.00 69 1009.8
20260505170058 13 19 4.8 9.7 0.00 0.00 0.00 74 1009.8
20260505164558 13 347 8.0 14.5 0.00 0.00 0.00 73 1009.9
20260505163057 13 342 6.4 16.1 0.00 0.00 0.00 73 1009.9
20260505161619 13 346 6.4 17.7 0.00 0.00 0.00 73 1009.9
20260505153055 13 19 6.4 11.3 0.00 0.00 0.00 71 1009.9
20260505151611 14 340 6.4 16.1 0.00 0.00 0.00 70 1010.0
20260505124549 16 28 8.0 22.5 0.00 0.00 0.00 62 1010.4
20260505123046 17 86 8.0 22.5 0.00 0.00 0.00 59 1010.5
20260505121544 16 26 8.0 16.1 0.00 0.00 0.00 63 1010.4
20260505120104 16 12 8.0 19.3 0.00 0.00 0.00 61 1010.5
20260505114543 16 70 12.9 22.5 0.00 0.00 0.00 63 1010.5
20260505113045 16 61 9.7 25.7 0.00 0.00 0.00 63 1010.7
20260505111538 15 44 8.0 19.3 0.00 0.00 0.00 64 1010.8
20260505101530 14 101 9.7 20.9 0.00 0.00 0.00 67 1011.3
20260505100029 14 11 4.8 24.1 0.00 0.00 0.00 69 1011.4
20260505094527 13 32 8.0 19.3 0.00 0.00 0.00 69 1011.5
20260505093026 14 79 12.9 22.5 0.00 0.00 0.00 69 1011.4